Location: *
(43.4667°N, 11.6833°E)
Time: 22:59:34
(UTC+00:00)

BREEZE M DEB (TANK) - Pass Details

Date: 19 July 2019
Orbit: 291 x 14542 km, 49.5° (Epoch: 18 August)

Event Time Altitude Azimuth Distance (km) Brightness Sun altitude
Exits shadow 23:09:24 38° 97° (E) 1,175 3.8 -25.7°
Drops below altitude 10° 23:15:51 10° 63° (ENE) 4,023 7.0 -25.8°
Sets 23:22:13 0° 60° (ENE) 6,739 8.2 -25.8°
